Regional Weather Roundup
Issued by NWS

Home | Current Version | Previous Version | Text Only | Print | Product List | Glossary On
Versions: 1 2 3 4 5 6 7 8 9 10 11 12 13 14 15 16 17 18 19 20 21 22 23 24 25 26 27 28 29 30 31 32 33 34 35 36 37 38 39 40 41 42 43 44 45 46 47 48 49 50
000
ASCA42 TJSJ 251611
RWRPR
PUERTO RICO/U.S. VIRGIN ISLANDS HOURLY WEATHER ROUNDUP
NATIONAL WEATHER SERVICE SAN JUAN PR
1200 PM AST SAT OCT 25 2014

PRZ001-004-251700-
PUERTO RICO

CITY           SKY/WX    TMP DP  RH WIND       PRES   REMARKS
SAN JUAN LMM   PTSUNNY   84  75  74 E8        29.92F HX  92
MAYAGUEZ       MOSUNNY   90  70  51 E7        29.93  HX  95
AGUADILLA      MOSUNNY   86  73  66 N5        29.92F HX  93
CEIBA          PTSUNNY   88  75  66 E9        29.95F HX  97
$$

PRZ006-007-251700-
U.S. VIRGIN ISLANDS

CITY           SKY/WX    TMP DP  RH WIND       PRES   REMARKS
CHARLOTTE AMA  MOSUNNY   86  73  66 SE12      29.92  HX  93
CHRISTIANSTED  MOSUNNY   90  75  62 SE13      29.94F HX 100
$$

HOURLY WEATHER ROUNDUP FOR THE NEWS MEDIA

CITY           SKY/WX    TMP DP  RH WIND       PRES   REMARKS
MIAMI          MOSUNNY   81  56  42 NW8       29.93S
ORLANDO        SUNNY     76  55  48 N8        30.00S
NEW YORK       MOSUNNY   62  40  44 W10       29.83F
NEWARK         MOSUNNY   63  40  42 W10       29.82F
CHICAGO        MOSUNNY   65  48  54 NW14      29.95R
HARTFORD       SUNNY     60  43  53 W7        29.71F
BOSTON         MOSUNNY   60  42  51 W9        29.69F
DALLAS         SUNNY     78  60  53 SW7       30.15S
PHILADELPHIA   MOSUNNY   64  42  44 W9G18     29.87F



USA.gov is the U.S. government's official web portal to all federal, state and local government web resources and services.